Location: Pella
(41.4080°N, 92.9160°W)
Time: 07:05:18
(UTC-05:00)

Iridium 91 - Visible Passes

Search period start: 24 August 2016 00:00
Search period end: 03 September 2016 00:00
Orbit: 776 x 779 km, 86.4° (Epoch: 23 August)

Date Brightness Start Highest point End Pass type
(mag) Time Alt. Az. Time Alt. Az. Time Alt. Az.
24 Aug 8.3 05:29:20 10° SE 05:33:15 22° E 05:37:10 10° NNE visible
25 Aug 8.8 04:58:16 10° E 05:00:05 12° ENE 05:01:55 10° NE visible
26 Aug 6.4 06:01:28 10° SSE 06:06:33 57° E 06:11:40 10° N visible
27 Aug 7.6 05:28:40 10° SE 05:33:12 31° E 05:37:44 10° NNE visible
28 Aug 8.4 04:56:38 10° ESE 04:59:58 17° ENE 05:03:17 10° NE visible
29 Aug 5.7 06:01:25 10° S 06:06:38 82° E 06:11:51 10° N visible
30 Aug 6.8 05:28:17 10° SSE 05:33:11 44° E 05:38:08 10° NNE visible
31 Aug 7.8 04:55:44 10° SE 04:59:53 25° E 05:04:03 10° NNE visible
01 Sep 8.5 04:24:13 10° ESE 04:26:42 14° ENE 04:29:10 10° NE visible
01 Sep 5.5 06:01:33 10° S 06:06:44 69° W 06:11:57 10° N visible
02 Sep 6.0 05:28:05 10° S 05:33:14 65° E 05:38:24 10° N visible
